IGO6563 VOBL-VAPO

Flight info

Callsign IGO6563
Flight time N/A
Altitude 36000
Route VAGPU7B VAGPU Q8 AGELA W56 AVKOR W67 PPN
Aircraft A21N/M-SDE3FGHIRWY/LB1

Departure

Time N/A
Airport Kempegowda International Airport Bengaluru (VOBL)

Arrival

Time 2026-05-03 20:45
Airport Pune International Airport (VAPO)
Time Latitude Longitude Altitude Speed Heading
2026-05-03 20:15 16.26648 75.92290 35856 ft 472 kts 309°
2026-05-03 20:15 16.30656 75.86919 35856 ft 472 kts 309°
2026-05-03 20:16 16.34670 75.81536 35856 ft 472 kts 309°
2026-05-03 20:16 16.38666 75.76173 35856 ft 472 kts 309°
2026-05-03 20:17 16.42655 75.70815 35856 ft 472 kts 309°
2026-05-03 20:17 16.46667 75.65422 35856 ft 472 kts 309°
2026-05-03 20:18 16.50640 75.60079 35857 ft 472 kts 309°
2026-05-03 20:18 16.54629 75.54710 35866 ft 472 kts 309°
2026-05-03 20:19 16.58616 75.49342 35873 ft 471 kts 310°
2026-05-03 20:19 16.62862 75.44273 35878 ft 470 kts 316°
2026-05-03 20:20 16.67452 75.39481 35881 ft 470 kts 317°
2026-05-03 20:20 16.72038 75.34736 35882 ft 470 kts 317°
2026-05-03 20:21 16.76563 75.30038 35881 ft 470 kts 317°
2026-05-03 20:21 16.81094 75.25323 35877 ft 470 kts 317°
2026-05-03 20:22 16.85693 75.20531 35869 ft 470 kts 317°
2026-05-03 20:22 16.90311 75.15714 35859 ft 470 kts 317°
2026-05-03 20:23 16.94892 75.10933 35849 ft 470 kts 317°
2026-05-03 20:23 16.99493 75.06132 35840 ft 471 kts 316°
2026-05-03 20:24 17.04091 75.01331 35835 ft 472 kts 315°
2026-05-03 20:24 17.08707 74.96502 35832 ft 473 kts 315°
2026-05-03 20:25 17.13128 74.91871 35830 ft 475 kts 315°
2026-05-03 20:25 17.17928 74.86837 35830 ft 476 kts 315°
2026-05-03 20:26 17.22678 74.81854 35830 ft 476 kts 315°
2026-05-03 20:26 17.27181 74.77129 35830 ft 476 kts 315°
2026-05-03 20:27 17.31812 74.72267 35830 ft 476 kts 315°
2026-05-03 20:27 17.36454 74.67390 35531 ft 479 kts 315°
2026-05-03 20:27 17.38829 74.64893 35166 ft 475 kts 315°
2026-05-03 20:28 17.41168 74.62432 34543 ft 474 kts 315°
2026-05-03 20:28 17.43505 74.59972 33709 ft 477 kts 315°
2026-05-03 20:28 17.45811 74.57544 32839 ft 481 kts 315°
2026-05-03 20:28 17.48148 74.55083 31979 ft 484 kts 315°
2026-05-03 20:29 17.50477 74.52629 31139 ft 486 kts 315°
2026-05-03 20:29 17.52829 74.50150 30284 ft 487 kts 315°
2026-05-03 20:29 17.55189 74.47663 29405 ft 489 kts 315°
2026-05-03 20:29 17.57551 74.45173 28503 ft 491 kts 315°
2026-05-03 20:30 17.59889 74.42706 27579 ft 493 kts 315°
2026-05-03 20:30 17.62278 74.40185 26604 ft 495 kts 315°
2026-05-03 20:30 17.64658 74.37672 25570 ft 498 kts 315°
2026-05-03 20:30 17.67074 74.35120 24549 ft 500 kts 315°
2026-05-03 20:31 17.69463 74.32597 23572 ft 500 kts 315°
2026-05-03 20:31 17.71890 74.30032 22622 ft 499 kts 315°
2026-05-03 20:31 17.74295 74.27488 22084 ft 489 kts 315°
2026-05-03 20:31 17.76639 74.25007 21437 ft 483 kts 315°
2026-05-03 20:32 17.78927 74.22585 20810 ft 476 kts 315°
2026-05-03 20:32 17.81234 74.20143 20181 ft 470 kts 315°
2026-05-03 20:32 17.83495 74.17748 19561 ft 464 kts 315°
2026-05-03 20:32 17.85725 74.15385 18945 ft 459 kts 315°
2026-05-03 20:33 17.87896 74.13084 18342 ft 454 kts 315°
2026-05-03 20:33 17.90057 74.10792 17736 ft 449 kts 315°
2026-05-03 20:33 17.92229 74.08489 17123 ft 444 kts 315°
2026-05-03 20:33 17.94282 74.06310 16539 ft 439 kts 315°
2026-05-03 20:34 17.96391 74.04072 15912 ft 434 kts 315°
2026-05-03 20:34 17.98418 74.01919 15384 ft 419 kts 315°
2026-05-03 20:34 18.00400 73.99812 14637 ft 401 kts 315°
2026-05-03 20:34 18.02479 73.98029 13880 ft 384 kts 333°
2026-05-03 20:35 18.04933 73.97251 13177 ft 366 kts 357°
2026-05-03 20:35 18.07336 73.97527 12556 ft 349 kts 15°
2026-05-03 20:35 18.09610 73.98216 12005 ft 334 kts 18°
2026-05-03 20:35 18.11697 73.98882 11500 ft 321 kts 18°
2026-05-03 20:36 18.13794 73.99541 11002 ft 309 kts 17°
2026-05-03 20:36 18.15791 74.00152 10542 ft 302 kts 17°
2026-05-03 20:36 18.17708 74.00729 10149 ft 295 kts 17°
2026-05-03 20:36 18.19663 74.01311 9656 ft 292 kts 17°
2026-05-03 20:37 18.21619 74.01889 9170 ft 294 kts 17°
2026-05-03 20:37 18.23606 74.02474 8666 ft 296 kts 17°
2026-05-03 20:37 18.25584 74.03055 8243 ft 295 kts 17°
2026-05-03 20:37 18.27562 74.03635 7856 ft 293 kts 17°
2026-05-03 20:38 18.29520 74.04208 7486 ft 291 kts 17°
2026-05-03 20:38 18.31447 74.04772 7127 ft 288 kts 17°
2026-05-03 20:38 18.33350 74.05329 6775 ft 286 kts 17°
2026-05-03 20:38 18.35272 74.05892 6421 ft 283 kts 17°
2026-05-03 20:39 18.37141 74.06440 6077 ft 281 kts 17°
2026-05-03 20:39 18.39034 74.06995 5731 ft 279 kts 17°
2026-05-03 20:39 18.40897 74.07541 5391 ft 276 kts 17°
2026-05-03 20:39 18.42734 74.08079 5291 ft 264 kts 17°
2026-05-03 20:40 18.44456 74.08581 5266 ft 256 kts 17°
2026-05-03 20:40 18.46157 74.09081 5209 ft 246 kts 17°
2026-05-03 20:40 18.47775 74.09554 5068 ft 239 kts 17°
2026-05-03 20:40 18.49379 74.10025 4919 ft 239 kts 17°
2026-05-03 20:41 18.50981 74.10497 4752 ft 238 kts 17°
2026-05-03 20:41 18.52621 74.10920 4547 ft 239 kts
2026-05-03 20:41 18.54231 74.10651 4326 ft 240 kts 333°
2026-05-03 20:41 18.55535 74.09553 4127 ft 239 kts 310°
2026-05-03 20:42 18.56564 74.08197 3931 ft 233 kts 306°
2026-05-03 20:42 18.57251 74.06709 3782 ft 215 kts 282°
2026-05-03 20:42 18.57447 74.05221 3755 ft 193 kts 271°
2026-05-03 20:42 18.57501 74.03883 3729 ft 173 kts 269°
2026-05-03 20:43 18.57549 74.02623 3685 ft 173 kts 270°
2026-05-03 20:43 18.57618 74.01347 3473 ft 172 kts 271°
2026-05-03 20:43 18.57697 74.00118 3281 ft 164 kts 271°
2026-05-03 20:43 18.57775 73.98938 3041 ft 158 kts 271°
2026-05-03 20:44 18.57847 73.97791 2826 ft 156 kts 271°
2026-05-03 20:44 18.57917 73.96664 2622 ft 156 kts 271°
2026-05-03 20:44 18.57988 73.95528 2417 ft 155 kts 271°
2026-05-03 20:44 18.58064 73.94390 2214 ft 154 kts 272°
2026-05-03 20:45 18.58151 73.93248 2001 ft 153 kts 270°
2026-05-03 20:45 18.58223 73.92165 1942 ft 132 kts 271°
2026-05-03 20:45 18.58250 73.91515 1940 ft 44 kts 272°
2026-05-03 20:45 18.58259 73.91233 1931 ft 27 kts 262°
2026-05-03 20:46 18.58204 73.91067 1924 ft 22 kts 244°
2026-05-03 20:46 18.58154 73.90965 1920 ft 9 kts 240°
2026-05-03 20:46 18.58117 73.90927 1919 ft 6 kts 198°
2026-05-03 20:46 18.58080 73.90923 1920 ft 4 kts 180°
2026-05-03 20:47 18.58056 73.90924 1921 ft 3 kts 177°
2026-05-03 20:47 18.58039 73.90925 1921 ft 2 kts 181°
2026-05-03 20:47 18.58019 73.90923 1921 ft 3 kts 184°
2026-05-03 20:47 18.58012 73.90923 1921 ft 0 kts 184°
2026-05-03 20:48 18.58010 73.90923 1922 ft 0 kts 184°